STARLINK-4647, 53608

Orbit data source: Space-Track

STARLINK-4647, 53608 is a payload satellite owned by SpaceX/Seattle (US) in LEO that was launched on Sun, 28 Aug 2022 UTC via an FALCON 9 launch vehicle from the Air Force Eastern Test Range (AFETR). Payload-class satellites include a variety of spacecraft equipped with specific instruments for various scientific and technological missions. These include communications satellites like Starlink; space stations such as the ISS; scientific satellites like the Hubble; Earth observation satellites from companies like Planet Labs, Umbra, and HawkEye 360; GPS; miniature CubeSats for education and research; and military/defense satellites.

Loading next visibility...
Identifier
53608, 2022-104W
Orbit
LEO
Country
Flag of USUS
Related business
Manufacturer
SpaceX/Seattle
Mission
Operational Commercial Communications
Bus & Motor
STARLINK, Unknown motor
Mass
300 kg wet, ~290 kg dry
Launch date (UTC)
2022-08-28 (3 years ago)
Launch vehicle
FALCON 9
Launch site
Air Force Eastern Test Range (AFETR)
Object type
Payload
Rocket body
Debris
Shape & HBR
Box + 1 Pan, 10.1 m
Radar Cross Section
13.562 m², Large (>1 m²)

Expand to show TLE details & history
Last TLE update: 9 hours ago

TLE from 9 hours ago
0 STARLINK-4647
1 53608U 22104W   26036.96961483  .00001988  00000-0  14303-3 0  9994
2 53608  53.2209  16.7111 0001598  86.7877 273.3298 15.08830729190847
Epoch: 2026-02-05T23:16Z
TLE epoch observation values (Epoch: 2026-02-05T23:16:14.721Z)
Latitude
-0.00001°
Longitude
-108.46446°
Altitude
540.606 km
Speed
7.593 km/s
True Right ascension
01h 06m 50s
True Declination
0° 00' 00"
Sunlit
Object was in daylight at epoch
Visualization orbit readout
Latitude
Unknown
Longitude
Unknown
Altitude
Unknown
Speed
Unknown
Apparent Right ascension
Unknown
Apparent Declination
Unknown
Sunlit
N/A
Visualization observer readout
Local Sidereal Time
10:36:34
Azimuth
Unknown
Elevation
Unknown
Doppler factor
Unknown
Orbital elements
Apogee altitude
541.122 km
Perigee altitude
538.911 km
Semi-major axis
6,918.153 km
Eccentricity
0.00016
Inclination
53.2209°
RAAN
16.7111°
Arg. of periapsis
86.7877°
True anomaly
273.31152°
Mean anomaly
273.3298°
Eccentric anomaly
273.32066°
Mean motion
3.77188 °/min
Orbital period
95.44 mins
BSTAR
0.00014303
Loading maneuver chart data...
Computing Atmospheric mass density...
Loading historical data...
Loading historical data...
Loading historical data...
Loading historical data...
Loading historical data...
Loading historical data...
Loading historical data...

Documentation

Showing up to 5 results
|